Home > Weather > Porto Novo > Past weeks

Flag for Benin Weather for the Past 2 Weeks in Porto Novo, Benin

Now
77 °F

Fog.


Feels Like: 78 °F
Forecast: 74 / 92 °F
Wind: 3 mph from North

Location: Cotonou Airport

Current Time: Feb 11, 2016 at 3:44:38 AM

Latest Report: Feb 11, 2016 at 3:00 AM


Visibility: 2 mi

Pressure: 29.83 "Hg

Humidity: 100%

Dew point: 77 °F

Location of Porto NovoLocation

Historic Weather in Porto Novo — Graph

°F

Porto Novo Temperature Yesterday

Maximum temperature yesterday: 93 °F (at 1:00 PM)
Minimum temperature yesterday: 77 °F (at 6:00 AM)
Average temperature yesterday: 83 °F

High & Low Weather Summary for the Past Weeks

 TemperatureHumidityPressure
High95 °F (Feb 9, 2:00 PM)100% (Feb 1, 3:00 AM)29.98 "Hg (Feb 1, 3:00 AM)
Low72 °F (Jan 27, 5:00 AM)17% (Jan 29, 3:00 PM)29.71 "Hg (Feb 10, 5:00 PM)
Average82 °F78%29.85 "Hg
* Reported Jan 27 2:00 AM — Feb 11 2:00 AM, Porto Novo, Weather by CustomWeather, © 2016

Note: Actual official high and low records may vary slightly from our data, if they occured in-between our weather recording intervals... More about our weather records

Advertising

Porto Novo Weather History for the Previous 24 Hours

 ConditionsComfort  
Time TempWeatherWind HumidityBarometerVisibility
2:00 AM
Thu, Feb 11
79 °FFog.3 mph100%29.83 "Hg2 mi
1:00 AM81 °FHaze.8 mph100%29.83 "Hg2 mi
12:00 AM82 °FHaze.8 mph89%29.83 "Hg2 mi
11:00 PM
Wed, Feb 10
82 °FHaze.9 mph89%29.83 "Hg2 mi
10:00 PM82 °FHaze.7 mph89%29.80 "Hg2 mi
9:00 PM82 °FHaze.6 mph89%29.80 "Hg2 mi
8:00 PM82 °FHaze.6 mph84%29.77 "Hg2 mi
7:00 PM84 °FHaze.8 mph70%29.74 "Hg2 mi
6:00 PM86 °FHaze.10 mph62%29.71 "Hg2 mi
5:00 PM88 °FHaze.10 mph55%29.71 "Hg2 mi
4:00 PM90 °FHaze.10 mph49%29.74 "Hg2 mi
3:00 PM93 °FHaze.8 mph34%29.74 "Hg2 mi
2:00 PM93 °FHaze.7 mph34%29.80 "Hg2 mi
1:00 PM93 °FHaze.8 mph21%29.83 "Hg2 mi
12:00 PM90 °FHaze.8 mph26%29.86 "Hg2 mi
11:00 AM86 °FHaze.10 mph49%29.89 "Hg2 mi
10:00 AM81 °FHaze.8 mph84%29.89 "Hg2 mi
9:00 AM79 °FFog.6 mph94%29.89 "Hg2 mi
8:00 AM77 °FFog.No wind100%29.89 "Hg2 mi
7:00 AM77 °FFog.3 mph100%29.86 "Hg1 mi
6:00 AM77 °FFog.5 mph100%29.86 "Hg1 mi
5:00 AM79 °FFog.5 mph100%29.86 "Hg1 mi
4:00 AM79 °FDuststorm.3 mph100%29.86 "Hg2 mi
3:00 AM79 °FDuststorm.2 mph100%29.86 "Hg2 mi
Weather by CustomWeather, © 2016

See weather overviewHow to use our weather pages